Vorticity
10 9 11 10 10 9 10 13 12 11 9 21 10 12 17 11 7 6 4 9 20 11 0 12 10 2 -2 -18 27 28 9 9 2 -0 11 13 11 12 10 -2 17 -2 -1 -21
11 13 12 14 15 17 18 11 12 24 17 14 10 11 10 12 15 14 11 -2 -2 -3 2 22 3 -4 10 -10 7 7 -4 7 19 22 23 26 26 14 15 10 14 3 -8 -29
9 8 9 8 10 12 14 18 20 15 18 19 12 3 15 15 6 9 10 4 2 3 5 2 -2 1 7 14 5 -11 12 19 -7 -41 -50 -40 -18 9 5 13 9 -9 -27 -25
8 9 8 8 9 10 13 15 11 12 -8 21 17 10 6 12 9 20 7 5 3 6 16 12 36 18 13 8 10 -3 27 8 10 10 9 4 4 1 -1 -0 3 14 -14 2
8 8 9 9 11 11 11 13 14 13 18 8 11 11 15 9 -0 5 29 21 7 -6 -4 1 6 9 10 7 9 16 -1 3 -7 -7 4 18 12 2 7 1 1 -2 7 6
9 8 9 9 9 11 12 10 9 10 8 9 8 7 13 17 -1 18 -8 13 12 12 16 8 9 8 9 7 9 14 12 2 -9 12 -9 18 59 47 31 29 21 19 7 8
9 9 8 8 8 9 9 9 9 9 7 7 4 17 -6 17 13 7 3 3 18 13 10 13 10 7 10 23 30 42 17 26 26 -8 5 41 31 51 26 16 13 14 20 23
10 10 9 9 9 9 10 9 8 6 7 5 8 9 9 0 9 18 20 -1 -1 10 4 15 47 27 64 13 9 6 58 56 2 -5 -1 -41 -34 -46 -5 6 -17 -10 -0 8
9 10 9 10 10 9 10 8 7 7 5 -13 17 2 13 12 14 10 -5 -2 20 17 10 15 8 4 -12 26 -8 -38 -33 -2 37 1 -5 3 63 -18 -27 0 39 22 -16 3
10 10 10 11 11 10 8 9 7 8 8 3 -1 29 2 7 4 -5 3 14 2 27 49 30 25 28 -4 15 -19 1 24 30 21 21 21 33 14 13 -29 9 -14 -46 1 4
10 10 12 12 12 11 10 6 12 8 7 -2 19 -6 -2 5 37 21 11 17 37 13 3 7 -7 3 -0 22 24 -3 -31 -8 -15 10 11 48 -28 -20 -16 -12 9 63 -9 0
12 14 13 12 11 12 16 10 10 12 4 -11 10 13 40 -2 -2 40 12 3 -16 -32 1 -15 3 -22 -7 -4 2 -3 -1 -14 -18 -33 -37 -66 -22 -20 -4 -14 14 9 51 -3
14 12 12 11 20 8 7 5 3 7 0 12 6 -15 67 -18 -2 11 2 15 23 15 31 21 14 32 29 21 14 37 31 3 5 38 6 23 42 -10 7 -0 9 -3 20 14
10 19 11 8 11 10 10 10 8 10 15 4 45 -37 10 12 32 29 5 8 14 12 9 5 8 7 7 -11 -21 -11 -5 4 -0 -15 23 4 12 6 9 14 13 14 19 11
13 11 10 12 11 11 9 5 11 15 39 -9 12 8 45 -2 27 31 26 13 3 -4 4 5 4 5 13 8 18 -1 19 8 1 -14 -3 5 11 25 21 14 15 18 15 13
13 8 6 10 12 10 9 8 30 -0 10 8 10 -22 4 44 -8 8 10 3 22 24 21 19 9 15 30 20 4 18 25 26 23 -9 4 9 18 1 16 14 -9 11 6 6
8 9 9 14 12 11 13 9 20 22 12 1 17 42 -17 -4 1 36 29 2 5 11 10 10 8 17 35 2 -2 -8 28 32 36 44 35 12 27 38 16 17 24 8 3 13
9 8 11 13 7 8 11 23 9 5 8 13 27 -4 36 6 42 -12 10 22 46 46 35 24 26 27 33 18 22 19 13 -5 7 23 15 16 21 18 13 18 19 16 9 7
10 11 9 9 8 20 16 15 9 9 42 16 -7 4 23 -10 -21 4 15 27 14 19 7 11 36 20 1 -4 -4 -2 -2 28 13 22 21 17 21 26 21 21 21 18 14 14
10 8 7 19 12 13 11 4 34 30 12 17 20 20 31 -1 7 13 38 41 17 -5 38 24 22 24 18 10 12 26 13 11 3 10 6 6 19 19 15 12 11 10 15 14
11 13 13 11 15 12 30 30 21 23 -2 35 -33 15 -20 3 21 23 46 8 18 18 19 9 13 25 -18 3 6 3 2 2 4 7 1 13 15 19 25 17 18 12 15 14
8 11 9 10 17 47 26 16 10 6 15 -31 -12 -3 -0 13 27 25 30 18 21 3 12 12 12 -60 14 10 9 11 8 13 10 8 2 -6 15 2 14 24 19 12 15 18
12 13 42 39 -1 2 5 4 8 -3 -6 -3 -2 12 7 20 30 16 35 13 3 -4 17 20 -40 21 22 28 32 36 39 38 39 35 36 45 22 8 0 13 21 17 13 16
17 38 14 7 21 -14 -3 -1 4 6 -2 10 15 9 4 25 67 19 9 8 24 32 4 -40 6 13 15 24 29 18 25 22 37 48 50 41 31 4 4 11 9 21 13 19
11 22 16 -18 6 -3 10 1 12 19 11 5 4 25 40 44 14 12 7 8 10 -9 -20 10 6 10 19 30 19 18 21 19 41 55 40 40 28 14 2 6 3 20 14 7
9 18 -4 12 8 32 21 12 9 7 4 7 35 49 19 15 5 15 8 17 -4 -3 12 11 9 13 16 29 33 26 22 24 26 45 31 24 37 26 17 3 7 25 11 9
8 2 10 14 20 5 8 13 2 29 40 48 42 10 9 10 16 10 11 3 15 16 8 8 10 11 12 18 18 25 38 32 27 26 33 33 31 24 16 19 26 20 26 36
Height
3115 3112 3107 3103 3100 3098 3094 3091 3089 3086 3084 3083 3080 3077 3076 3074 3074 3074 3074 3070 3066 3064 3064 3062 3062 3061 3060 3056 3055 3054 3053 3048 3042 3041 3041 3039 3038 3039 3039 3038 3035 3032 3028 3004
3111 3108 3104 3099 3095 3092 3090 3086 3084 3081 3080 3079 3076 3075 3073 3071 3068 3066 3068 3066 3063 3061 3061 3060 3056 3054 3052 3052 3052 3050 3049 3045 3040 3036 3037 3034 3034 3036 3036 3036 3032 3025 3028 3003
3107 3103 3100 3096 3091 3088 3087 3084 3082 3078 3076 3075 3074 3072 3069 3069 3066 3063 3062 3062 3060 3057 3057 3056 3050 3048 3047 3047 3047 3047 3045 3039 3039 3036 3035 3035 3031 3029 3030 3030 3026 3020 3011 3001
3103 3099 3096 3093 3089 3085 3083 3080 3078 3076 3074 3073 3070 3068 3067 3065 3063 3061 3059 3057 3056 3052 3048 3045 3045 3041 3037 3039 3042 3041 3040 3033 3033 3030 3029 3027 3022 3018 3021 3019 3013 3015 3002 2999
3100 3096 3092 3089 3086 3082 3081 3078 3076 3073 3072 3071 3068 3065 3063 3062 3060 3058 3056 3051 3050 3049 3046 3043 3033 3033 3034 3024 3028 3034 3034 3026 3024 3017 3022 3021 3010 3009 3008 3004 3002 2997 2993 2987
3097 3092 3089 3084 3080 3077 3075 3073 3071 3069 3069 3067 3065 3063 3059 3057 3054 3055 3052 3049 3043 3042 3039 3033 3029 3026 3024 3020 3019 3021 3022 3021 3022 3007 3016 3013 2999 2991 2994 2990 2991 2988 2984 2982
3094 3089 3085 3082 3077 3074 3071 3068 3066 3064 3063 3063 3061 3060 3057 3055 3052 3047 3047 3045 3038 3036 3031 3027 3023 3019 3014 3012 3009 3010 3004 3009 3015 3002 3011 3005 2980 2985 2985 2984 2981 2986 2983 2980
3090 3086 3082 3078 3075 3071 3068 3064 3061 3057 3054 3056 3056 3054 3050 3049 3045 3043 3040 3039 3035 3031 3027 3018 3009 3005 3003 3002 3002 3001 2998 3001 3003 3001 2994 2984 2975 2979 2982 2979 2972 2979 2974 2972
3085 3082 3079 3075 3071 3066 3064 3061 3056 3052 3048 3046 3048 3046 3046 3040 3035 3033 3033 3032 3029 3027 3021 3020 3015 3010 3005 3000 2997 2999 2997 2997 2998 2992 2988 2978 2971 2972 2974 2970 2964 2969 2967 2964
3081 3077 3074 3071 3068 3063 3058 3059 3054 3048 3043 3040 3042 3040 3038 3035 3031 3024 3022 3020 3018 3019 3015 3013 3010 3003 3005 2999 2993 2990 2991 2988 2985 2981 2976 2969 2966 2967 2964 2968 2966 2959 2960 2959
3074 3071 3068 3065 3063 3060 3054 3052 3050 3045 3037 3032 3033 3034 3031 3027 3026 3020 3018 3016 3013 3011 3010 3007 3005 2997 2996 2992 2988 2987 2986 2986 2983 2982 2977 2967 2964 2961 2962 2960 2957 2956 2954 2952
3067 3063 3061 3058 3056 3054 3050 3045 3043 3040 3033 3028 3025 3024 3023 3021 3020 3015 3012 3010 3007 3004 3001 3000 2995 2990 2986 2982 2971 2985 2980 2982 2979 2979 2967 2961 2953 2957 2955 2951 2948 2948 2945 2942
3059 3055 3053 3051 3048 3047 3044 3039 3038 3032 3024 3017 3012 3015 3017 3016 3013 3010 3001 2998 2995 2992 2994 2988 2981 2975 2976 2971 2966 2966 2969 2969 2964 2960 2952 2949 2945 2945 2946 2949 2944 2942 2938 2936
3051 3047 3045 3043 3041 3039 3036 3032 3033 3027 3019 3007 3003 3005 3004 3004 3001 2997 2992 2988 2987 2983 2983 2977 2971 2968 2969 2962 2960 2956 2955 2954 2950 2944 2932 2934 2934 2935 2935 2936 2937 2934 2934 2929
3044 3041 3038 3036 3034 3031 3028 3024 3026 3020 3015 3003 2995 2992 2999 2994 2989 2986 2983 2979 2977 2974 2969 2964 2960 2956 2958 2950 2947 2935 2936 2931 2936 2922 2921 2926 2919 2922 2922 2924 2925 2927 2925 2923
3037 3034 3032 3029 3027 3023 3018 3012 3017 3011 3006 2998 2987 2983 2978 2980 2980 2977 2974 2971 2965 2961 2956 2949 2941 2944 2948 2937 2925 2914 2918 2921 2919 2909 2913 2914 2907 2907 2909 2908 2912 2916 2916 2915
3030 3027 3025 3022 3021 3017 3014 3010 3009 3004 2998 2991 2982 2974 2971 2972 2971 2968 2965 2961 2954 2949 2944 2932 2932 2931 2936 2926 2914 2906 2912 2909 2905 2902 2900 2894 2894 2893 2896 2898 2899 2901 2901 2904
3023 3020 3017 3015 3013 3010 3007 3004 3000 2997 2993 2988 2978 2970 2966 2967 2964 2960 2956 2948 2942 2934 2929 2925 2923 2923 2921 2914 2906 2905 2902 2898 2894 2891 2889 2884 2882 2882 2883 2886 2887 2888 2890 2893
3017 3013 3010 3008 3006 3002 2999 2995 2991 2987 2986 2979 2973 2967 2964 2962 2960 2954 2944 2937 2930 2925 2919 2918 2919 2913 2912 2908 2903 2898 2894 2889 2883 2880 2879 2877 2874 2874 2875 2876 2877 2879 2882 2885
3010 3007 3004 2999 2997 2994 2992 2986 2982 2978 2975 2972 2967 2967 2966 2963 2956 2947 2941 2932 2927 2919 2916 2913 2908 2905 2906 2901 2897 2891 2886 2882 2876 2872 2873 2870 2869 2867 2868 2868 2869 2870 2872 2875
3004 3000 2997 2995 2992 2988 2984 2979 2977 2974 2971 2967 2965 2964 2960 2957 2951 2944 2940 2932 2926 2918 2914 2910 2904 2902 2899 2894 2889 2884 2878 2873 2869 2864 2864 2863 2863 2862 2861 2862 2864 2866 2868 2869
2999 2996 2990 2987 2984 2981 2980 2975 2974 2972 2970 2966 2963 2960 2955 2950 2946 2941 2936 2930 2924 2915 2911 2908 2902 2899 2892 2885 2878 2871 2864 2858 2854 2852 2849 2854 2856 2857 2857 2857 2858 2860 2864 2866
2994 2991 2986 2982 2981 2978 2975 2972 2971 2969 2966 2963 2959 2955 2951 2946 2944 2938 2933 2927 2920 2915 2909 2907 2905 2895 2886 2874 2862 2854 2847 2837 2830 2826 2825 2832 2842 2849 2852 2854 2855 2857 2860 2864
2989 2985 2982 2980 2976 2973 2971 2968 2966 2963 2959 2956 2953 2949 2948 2941 2937 2934 2930 2925 2920 2916 2914 2911 2902 2892 2880 2868 2857 2846 2835 2826 2817 2811 2810 2817 2829 2840 2846 2851 2853 2856 2859 2863
2985 2983 2977 2973 2971 2969 2966 2962 2958 2955 2952 2949 2946 2942 2939 2935 2933 2931 2929 2925 2923 2923 2921 2914 2905 2895 2882 2868 2856 2846 2836 2825 2815 2808 2808 2814 2824 2835 2844 2849 2852 2855 2860 2862
2980 2975 2972 2969 2964 2961 2957 2953 2950 2947 2943 2941 2938 2935 2934 2932 2932 2931 2929 2928 2928 2926 2921 2916 2909 2901 2888 2874 2863 2853 2844 2835 2826 2820 2817 2821 2829 2837 2844 2849 2852 2854 2857 2859
2974 2971 2968 2963 2957 2953 2949 2945 2941 2935 2931 2931 2931 2932 2932 2931 2931 2931 2930 2929 2928 2925 2923 2919 2913 2906 2897 2888 2876 2866 2857 2850 2843 2838 2836 2837 2840 2843 2845 2851 2855 2858 2859 2861